Location: Newark
(45.6000°N, 12.8833°E)
Time: 16:53:23
(UTC+00:00)

Explorer 7 - Visible Passes

Search period start: 18 November 2019 00:00
Search period end: 28 November 2019 00:00
Orbit: 485 x 680 km, 50.3° (Epoch: 18 November)

Date Brightness Start Highest point End Pass type
(mag) Time Alt. Az. Time Alt. Az. Time Alt. Az.
18 Nov 6.9 04:08:02 58° NNW 04:08:32 64° NNE 04:12:26 10° ESE visible
19 Nov 6.7 04:12:57 64° NW 04:13:33 84° NNE 04:17:29 10° ESE visible
20 Nov 10.1 02:41:35 11° E 02:41:35 11° E 02:41:44 10° E visible
20 Nov 6.7 04:17:55 59° W 04:18:30 69° SSW 04:22:24 10° SE visible
21 Nov 10.0 02:46:37 12° E 02:46:37 12° E 02:46:52 10° E visible
21 Nov 7.1 04:22:57 44° SW 04:23:23 46° SW 04:27:09 10° SE visible
22 Nov 9.9 02:51:42 12° ESE 02:51:42 12° ESE 02:51:57 10° ESE visible
22 Nov 7.7 04:28:03 30° SW 04:28:12 30° SW 04:31:40 10° SSE visible
23 Nov 9.9 02:56:51 11° ESE 02:56:51 11° ESE 02:56:57 10° ESE visible
23 Nov 8.4 04:33:12 20° SW 04:33:12 20° SW 04:35:50 10° S visible
24 Nov 9.0 04:38:26 12° SW 04:38:26 12° SW 04:39:17 10° SSW visible
